Weather History for Marfa, TX

Change the Weather History Date:

Friday, November 9, 2012

  Actual Average Record
Temperature  
Mean Temperature 58 °F -  
Max Temperature 78 °F 64 °F 80 °F (2005)
Min Temperature 39 °F 36 °F 24 °F (1996)
Degree Days  
Heating Degree Days 6    
Growing Degree Days 8 (Base 50)    
Moisture  
Dew Point 37 °F    
Average Humidity 47    
Maximum Humidity 81    
Minimum Humidity 21    
Precipitation  
Precipitation 0.00 in - - ()
Sea Level Pressure  
Sea Level Pressure 30.06 in    
Wind  
Wind Speed 3 mph (SSW)    
Max Wind Speed 23 mph    
Max Gust Speed 31 mph    
Visibility 10 miles    
Events      
Averages and records for this station are not official NWS values.
T = Trace of Precipitation, MM = Missing Value Source: NWS Daily Summary

Daily Weather History Graph

Daily Weather History Graph

Search for Another Location

Airport:

Trip Planner

Search our weather history database for the weather conditions in past years. The results will help you decide how hot, cold, wet, or windy it might be!

Date:

Astronomy

Nov. 09, 2012 Rise Set
Actual Time 7:17 AM CST 6:02 PM CST
Civil Twilight 6:52 AM CST 6:27 PM CST
Nautical Twilight 6:23 AM CST 6:56 PM CST
Astronomical Twilight 5:54 AM CST 7:24 PM CST
Moon 2:37 AM CST (11/9) 3:00 PM CST (11/9)
Length of Visible Light 11h 35m
Length of Day
10h 45m
Waning Crescent, 23% of the Moon is Illuminated
Nov 9
Waning Crescent
Nov 13
New
Nov 20
First Quarter
Nov 28
Full
Dec 6
Last Quarter

Hourly Weather History & Observations

Time (CST) Temp. Windchill Dew Point Humidity Pressure Visibility Wind Dir Wind Speed Gust Speed Precip Events Conditions
12:15 AM 48.2 °F - 33.8 °F 58% 30.09 in 10.0 mi Calm Calm - N/A   Clear
12:35 AM 48.2 °F - 33.8 °F 58% 30.09 in 10.0 mi Calm Calm - N/A   Clear
12:55 AM 44.6 °F - 32.0 °F 61% 30.09 in 10.0 mi Calm Calm - N/A   Clear
1:15 AM 44.6 °F - 33.8 °F 66% 30.09 in 10.0 mi Calm Calm - N/A   Clear
1:35 AM 44.6 °F - 33.8 °F 66% 30.09 in 10.0 mi Calm Calm - N/A   Clear
1:55 AM 44.6 °F - 33.8 °F 66% 30.09 in 10.0 mi Calm Calm - N/A   Clear
2:15 AM 44.6 °F - 33.8 °F 66% 30.09 in 10.0 mi Calm Calm - N/A   Clear
2:35 AM 44.6 °F 39.2 °F 33.8 °F 66% 30.10 in 10.0 mi WNW 10.4 mph 17.3 mph N/A   Clear
2:55 AM 46.4 °F - 33.8 °F 62% 30.10 in 10.0 mi Calm Calm - N/A   Clear
3:15 AM 44.6 °F - 33.8 °F 66% 30.09 in 10.0 mi Calm Calm - N/A   Mostly Cloudy
3:35 AM 46.4 °F - 35.6 °F 66% 30.09 in 10.0 mi Calm Calm - N/A   Overcast
3:55 AM 44.6 °F - 35.6 °F 71% 30.09 in 10.0 mi Calm Calm - N/A   Scattered Clouds
4:15 AM 44.6 °F - 35.6 °F 71% 30.09 in 10.0 mi Calm Calm - N/A   Clear
4:35 AM 44.6 °F - 33.8 °F 66% 30.09 in 10.0 mi Calm Calm - N/A   Clear
4:55 AM 44.6 °F - 35.6 °F 71% 30.09 in 10.0 mi Calm Calm - N/A   Clear
5:15 AM 42.8 °F - 33.8 °F 70% 30.09 in 10.0 mi Calm Calm - N/A   Clear
5:55 AM 41.0 °F - 33.8 °F 76% 30.09 in 10.0 mi Calm Calm - N/A   Clear
6:15 AM 39.2 °F - 33.8 °F 81% 30.10 in 10.0 mi Calm Calm - N/A   Clear
6:35 AM 39.2 °F - 33.8 °F 81% 30.10 in 10.0 mi Calm Calm - N/A   Clear
6:55 AM 39.2 °F - 33.8 °F 81% 30.10 in 10.0 mi Calm Calm - N/A   Clear
7:15 AM 39.2 °F - 33.8 °F 81% 30.10 in 10.0 mi Calm Calm - N/A   Clear
7:35 AM 42.8 °F - 33.8 °F 70% 30.10 in 10.0 mi Calm Calm - N/A   Clear
7:55 AM 42.8 °F - 35.6 °F 76% 30.11 in 10.0 mi Calm Calm - N/A   Clear
8:15 AM 46.4 °F - 35.6 °F 66% 30.11 in 10.0 mi Calm Calm - N/A   Clear
8:55 AM 55.4 °F - 39.2 °F 54% 30.12 in 10.0 mi Calm Calm - N/A   Clear
9:15 AM 60.8 °F - 41.0 °F 48% 30.13 in 10.0 mi Calm Calm - N/A   Clear
9:35 AM 62.6 °F - 41.0 °F 45% 30.14 in 10.0 mi Calm Calm - N/A   Clear
9:55 AM 64.4 °F - 39.2 °F 40% 30.14 in 10.0 mi Calm Calm - N/A   Clear
10:15 AM 66.2 °F - 39.2 °F 37% 30.14 in 10.0 mi Calm Calm - N/A   Clear
10:35 AM 66.2 °F - 39.2 °F 37% 30.14 in 10.0 mi Calm Calm - N/A   Clear
10:55 AM 69.8 °F - 39.2 °F 33% 30.13 in 10.0 mi Calm Calm - N/A   Clear
11:15 AM 71.6 °F - 39.2 °F 31% 30.13 in 10.0 mi Calm Calm - N/A   Clear
11:35 AM 73.4 °F - 39.2 °F 29% 30.12 in 10.0 mi Calm Calm - N/A   Clear
11:55 AM 73.4 °F - 37.4 °F 27% 30.11 in 10.0 mi South 8.1 mph - N/A   Clear
12:15 PM 75.2 °F - 37.4 °F 25% 30.10 in 10.0 mi WSW 16.1 mph 25.3 mph N/A   Clear
12:35 PM 75.2 °F - 37.4 °F 25% 30.09 in 10.0 mi Calm Calm - N/A   Clear
12:55 PM 77.0 °F - 37.4 °F 24% 30.07 in 10.0 mi West 8.1 mph 20.7 mph N/A   Clear
1:15 PM 75.2 °F - 35.6 °F 24% 30.06 in 10.0 mi SSW 9.2 mph - N/A   Partly Cloudy
1:35 PM 78.8 °F - 37.4 °F 23% 30.04 in 10.0 mi South 11.5 mph - N/A   Scattered Clouds
1:55 PM 75.2 °F - 37.4 °F 25% 30.03 in 10.0 mi South 9.2 mph - N/A   Partly Cloudy
2:15 PM 78.8 °F - 35.6 °F 21% 30.02 in 10.0 mi South 15.0 mph 24.2 mph N/A   Clear
2:35 PM 78.8 °F - 35.6 °F 21% 30.02 in 10.0 mi South 16.1 mph 26.5 mph N/A   Clear
2:55 PM 78.8 °F - 35.6 °F 21% 30.01 in 10.0 mi SSW 23.0 mph 26.5 mph N/A   Clear
3:15 PM 78.8 °F - 35.6 °F 21% 30.01 in 10.0 mi SSW 19.6 mph 31.1 mph N/A   Clear
3:35 PM 78.8 °F - 35.6 °F 21% 30.01 in 10.0 mi South 18.4 mph 24.2 mph N/A   Clear
3:55 PM 77.0 °F - 35.6 °F 22% 30.00 in 10.0 mi South 15.0 mph 21.9 mph N/A   Clear
4:15 PM 75.2 °F - 33.8 °F 22% 30.00 in 10.0 mi South 18.4 mph 21.9 mph N/A   Clear
4:35 PM 75.2 °F - 33.8 °F 22% 30.00 in 10.0 mi South 16.1 mph 20.7 mph N/A   Clear
4:55 PM 75.2 °F - 33.8 °F 22% 30.00 in 10.0 mi South 12.7 mph - N/A   Clear
5:15 PM 73.4 °F - 33.8 °F 23% 30.00 in 10.0 mi South 15.0 mph 19.6 mph N/A   Clear
5:35 PM 73.4 °F - 33.8 °F 23% 30.00 in 10.0 mi South 13.8 mph - N/A   Clear
5:55 PM 71.6 °F - 33.8 °F 25% 30.00 in 10.0 mi South 6.9 mph - N/A   Clear
6:15 PM 68.0 °F - 33.8 °F 28% 30.00 in 10.0 mi Calm Calm - N/A   Clear
6:35 PM 64.4 °F - 32.0 °F 30% 30.00 in 10.0 mi Calm Calm - N/A   Clear
6:55 PM 64.4 °F - 32.0 °F 30% 30.00 in 10.0 mi Calm Calm - N/A   Clear
7:15 PM 62.6 °F - 33.8 °F 34% 30.00 in 10.0 mi Calm Calm - N/A   Partly Cloudy
7:35 PM 62.6 °F - 33.8 °F 34% 30.00 in 10.0 mi Calm Calm - N/A   Scattered Clouds
7:55 PM 60.8 °F - 33.8 °F 36% 30.00 in 10.0 mi Calm Calm - N/A   Scattered Clouds
8:15 PM 60.8 °F - 35.6 °F 39% 30.01 in 10.0 mi Calm Calm - N/A   Clear
8:35 PM 60.8 °F - 37.4 °F 42% 30.01 in 10.0 mi Calm Calm - N/A   Mostly Cloudy
8:55 PM 60.8 °F - 37.4 °F 42% 30.01 in 10.0 mi Calm Calm - N/A   Scattered Clouds
9:15 PM 60.8 °F - 41.0 °F 48% 30.02 in 10.0 mi Calm Calm - N/A   Scattered Clouds
9:35 PM 60.8 °F - 44.6 °F 55% 30.01 in 10.0 mi Calm Calm - N/A   Scattered Clouds
9:55 PM 60.8 °F - 44.6 °F 55% 30.02 in 10.0 mi Calm Calm - N/A   Scattered Clouds
10:15 PM 57.2 °F - 42.8 °F 59% 30.02 in 10.0 mi Calm Calm - N/A   Partly Cloudy
10:35 PM 57.2 °F - 44.6 °F 63% 30.02 in 10.0 mi Calm Calm - N/A   Partly Cloudy
10:55 PM 57.2 °F - 46.4 °F 67% 30.02 in 10.0 mi Calm Calm - N/A   Clear
11:15 PM 57.2 °F - 46.4 °F 67% 30.01 in 10.0 mi Calm Calm - N/A   Scattered Clouds
11:35 PM 51.8 °F - 41.0 °F 67% 30.01 in 10.0 mi Calm Calm - N/A   Partly Cloudy
11:55 PM 51.8 °F - 44.6 °F 76% 30.01 in 10.0 mi Calm Calm - N/A   Scattered Clouds